This is the latest recevied weather packets stored in our database for station/object PU3WIW-13. If no packets are shown the sender has not sent any weather packets the latest 10 day(s).
| Time | Temp. | Humidity | Pressure | Rain* | Wind** | Luminosity | Snow |
|---|---|---|---|---|---|---|---|
| 1777733047 | 18.33° C | 14% | 1010.2 hPa | 0.51 mm | - | - | - |
| 1777732866 | 18.33° C | 16% | 1010.2 hPa | 0.51 mm | - | - | - |
| 1777732686 | 18.33° C | 16% | 1010.2 hPa | 0.51 mm | - | - | - |
| 1777732507 | 18.33° C | 15% | 1010.2 hPa | 0.51 mm | - | - | - |
| 1777732326 | 18.33° C | 15% | 1010.4 hPa | 0.51 mm | - | - | - |
| 1777732145 | 18.33° C | 14% | 1010.5 hPa | 0.51 mm | - | - | - |
| 1777731967 | 18.33° C | 12% | 1010.5 hPa | 0 mm | - | - | - |
| 1777731785 | 18.89° C | 11% | 1010.2 hPa | 0 mm | - | - | - |
| 1777731605 | 18.89° C | 13% | 1010.2 hPa | 0 mm | - | - | - |
| 1777731426 | 18.89° C | 16% | 1010.1 hPa | 0 mm | - | - | - |
| 1777731245 | 19.44° C | 20% | 1010 hPa | 0 mm | - | - | - |
| 1777731065 | 19.44° C | 25% | 1010 hPa | 0 mm | - | - | - |
| 1777730885 | 19.44° C | 27% | 1010.1 hPa | 0 mm | - | - | - |
| 1777730706 | 19.44° C | 28% | 1010 hPa | 0 mm | - | - | - |
| 1777730525 | 19.44° C | 31% | 1010 hPa | 0 mm | - | - | - |
| 1777730345 | 18.89° C | 33% | 1010.2 hPa | 0 mm | - | - | - |
| 1777730165 | 18.89° C | 34% | 1010.2 hPa | 0 mm | - | - | - |
| 1777729984 | 18.89° C | 34% | 1010.2 hPa | 0 mm | - | - | - |
| 1777729805 | 18.89° C | 34% | 1010.2 hPa | 0 mm | - | - | - |
| 1777729624 | 18.89° C | 34% | 1010.2 hPa | 0 mm | - | - | - |
| 1777729445 | 18.89° C | 35% | 1010.2 hPa | 0 mm | - | - | - |
| 1777729264 | 18.89° C | 36% | 1010.1 hPa | 0 mm | - | - | - |
| 1777729085 | 18.89° C | 40% | 1010.2 hPa | 0 mm | - | - | - |
| 1777728903 | 18.89° C | 43% | 1010.1 hPa | 0 mm | - | - | - |
| 1777728725 | 18.89° C | 47% | 1010.2 hPa | 0 mm | - | - | - |
* Rain latest hour (hover to see other rain measurements)
** Current wind speed in m/s (hover to see current wind gust speed)